Location: Newark
(25.6108°S, 54.5803°W)
Time: 03:46:29
(UTC+00:00)

Tiros 1 - Pass Details

Date: 01 November 2020
Orbit: 630 x 664 km, 48.4° (Epoch: 26 November)

Event Time Altitude Azimuth Distance (km) Brightness Sun altitude
Rises 23:02:10 0° 212° (SSW) 3,018 11.6 -15.0°
Reaches altitude 10° 23:05:03 10° 196° (SSW) 2,099 10.4 -15.6°
Maximum altitude 23:08:45 21° 146° (SE) 1,473 8.9 -16.3°
Enters shadow 23:10:46 17° 113° (ESE) 1,677 8.9 -16.8°
Drops below altitude 10° 23:12:26 10° 96° (E) 2,079 - -17.1°
Sets 23:15:15 0° 80° (E) 2,981 - -17.7°
